This demonstration page uses our WeatherBlox Daily Observations layout. Learn more.

Left ArrowRight Arrow

38.20091, -84.87328

Hourly Observations for August 8, 2018

Temp ( °F °C ) Dew Point ( °F °C ) Humidity (%) Winds ( mph kmh ) Pressure ( in mb ) Visibility ( mi km ) Precip ( " mm )
12:53 am 00:53 Mostly Clear 73 22.8 69 20.6 87 87 SSW 7 11 29.96 1015 10 16 0.00 0.00
1:53 am 01:53 Mostly Clear 72 22.2 69 20.6 91 91 Calm 29.95 1014 10 16 0.00 0.00
2:53 am 02:53 Mostly Cloudy with Nearby Thunderstorms 72 22.2 69 20.6 91 91 Calm 29.96 1014 10 16 0.00 0.00
3:08 am 03:08 Cloudy 72 22.2 69 20.6 91 91 Calm 29.94 1014 10 16 0.00 0.00
3:40 am 03:40 Cloudy with Thunderstorms 72 22.2 69 20.6 91 91 W 3 6 29.97 1015 10 16 0.00 0.00
3:53 am 03:53 Cloudy with Strong Thunderstorms 71 21.7 69 20.6 94 94 Calm 29.96 1015 2 3 0.09 2.29
4:05 am 04:05 Cloudy with Thunderstorms 71 21.7 69 20.6 94 94 Calm 29.94 1014 9 14 0.00 0.03
4:17 am 04:17 Cloudy with Nearby Thunderstorms 71 21.7 69 20.6 94 94 Calm 29.97 1015 10 16 0.00 0.03
4:31 am 04:31 Cloudy 72 22.2 69 20.6 91 91 SW 3 6 29.94 1014 10 16 0.00 0.03
4:40 am 04:40 Cloudy with Nearby Thunderstorms 72 22.2 70 21.1 94 94 SSW 3 6 29.97 1015 3 4 0.08 2.03
4:43 am 04:43 Cloudy with Strong Thunderstorms 71 21.7 70 21.1 96 96 undefined N/A 29.97 1015 1 2 0.17 4.32
4:53 am 04:53 Cloudy with Strong Thunderstorms 71 21.7 70 21.1 96 96 SSE 6 9 29.95 1014 2 3 0.29 7.37
4:56 am 04:56 Cloudy with Thunderstorms 71 21.7 70 21.1 96 96 S 7 11 29.97 1015 3 5 0.00 0.03
5:02 am 05:02 Cloudy with Light Rain 72 22.2 70 21.1 94 94 WSW 9 15 29.97 1015 3 4 0.10 2.54
5:04 am 05:04 Cloudy with Strong Thunderstorms 72 22.2 70 21.1 94 94 VRB 5 7 29.97 1015 1 2 0.20 5.08
5:06 am 05:06 Cloudy with Strong Thunderstorms 72 22.2 70 21.1 94 94 VRB 5 7 29.97 1015 1 1 0.27 6.86
5:16 am 05:16 Cloudy with Thunderstorms 71 21.7 70 21.1 96 96 Calm 29.94 1014 2 2 0.37 9.40
5:19 am 05:19 Cloudy with Light Rain 72 22.2 70 21.1 94 94 Calm 29.94 1014 3 5 0.37 9.40
5:53 am 05:53 Cloudy 72 22.2 70 21.1 94 94 Calm 29.95 1014 9 14 0.38 9.65
6:53 am 06:53 Cloudy 72 22.2 70 21.1 94 94 Calm 29.96 1015 10 16 0.00 0.00
7:50 am 07:50 Cloudy with Light Rain 72 22 70 21 94 94 SW 5 7 29.97 1015 8 13 0.00 0.03
7:53 am 07:53 Cloudy with Light Rain 72 22.2 70 21.1 94 94 SSW 6 9 29.99 1016 9 14 0.00 0.03
8:33 am 08:33 Mostly Cloudy with Light Rain 73 22.8 70 21.1 90 90 SSW 7 11 30.00 1016 10 16 0.01 0.25
8:53 am 08:53 Mostly Cloudy with Light Rain 72 22.2 70 21.1 94 94 SSW 6 9 29.99 1016 8 13 0.02 0.51
9:53 am 09:53 Mostly Cloudy with Light Rain 73 22.8 71 21.7 94 94 Calm 29.97 1015 10 16 0.02 0.51
10:10 am 10:10 Mostly Cloudy 74 23.3 72 22.2 94 94 SSW 7 11 29.97 1015 10 16 0.00 0.03
10:53 am 10:53 Mostly Sunny 77 25 72 22.2 85 85 SW 9 15 29.97 1015 10 16 0.00 0.03
11:40 am 11:40 Mostly Cloudy 80 26.7 73 22.8 79 79 SSW 9 15 29.97 1015 10 16 0.00 0.00
11:53 am 11:53 Partly Cloudy 80 26.7 72 22.2 76 76 SW 12 19 29.98 1015 10 16 0.00 0.00
12:53 pm 12:53 Mostly Cloudy 81 27.2 73 22.8 77 77 SSW 12 19 29.98 1015 10 16 0.00 0.00
1:01 pm 13:01 Mostly Cloudy 81 27.2 73 22.8 77 77 SW 12 19 29.97 1015 10 16 0.00 0.00
1:36 pm 13:36 Mostly Cloudy 80 26.7 72 22.2 76 76 SW 10 17 29.97 1015 10 16 0.00 0.00
1:53 pm 13:53 Mostly Cloudy with Light Rain 79 26.1 72 22.2 79 79 SW 10 17 29.96 1015 10 16 0.00 0.03
2:53 pm 14:53 Partly Cloudy 81 27.2 72 22.2 74 74 W 9 15 29.93 1014 10 16 0.01 0.25
3:53 pm 15:53 Mostly Sunny 80 26.7 72 22.2 76 76 VRB 3 6 29.94 1014 10 16 0.00 0.00
4:19 pm 16:19 Mostly Cloudy 80 26.7 72 22.2 76 76 SW 9 15 29.94 1014 10 16 0.00 0.00
4:53 pm 16:53 Mostly Cloudy 80 26.7 73 22.8 79 79 SW 9 15 29.93 1014 10 16 0.00 0.00
5:08 pm 17:08 Partly Cloudy 81 27.2 73 22.8 77 77 SSW 8 13 29.94 1014 10 16 0.00 0.00
5:53 pm 17:53 Sunny 80 26.7 72 22.2 76 76 VRB 6 9 29.92 1013 10 16 0.00 0.00
6:53 pm 18:53 Sunny 81 27.2 73 22.8 77 77 SW 7 11 29.93 1014 10 16 0.00 0.00
7:53 pm 19:53 Sunny 78 25.6 72 22.2 82 82 SW 12 19 29.93 1014 10 16 0.00 0.00
8:53 pm 20:53 Clear 76 24.4 72 22.2 88 88 SSW 7 11 29.93 1013 10 16 0.00 0.00
9:53 pm 21:53 Clear 75 23.9 72 22.2 90 90 SSW 7 11 29.95 1014 10 16 0.00 0.00
10:53 pm 22:53 Clear 74 23.3 72 22.2 94 94 SW 6 9 29.96 1015 10 16 0.00 0.00
11:53 pm 23:53 Clear 73 22.8 71 21.7 94 94 SSW 7 11 29.96 1015 10 16 0.00 0.00

Powered by AerisWeather